星链-32892 (STARLINK-32892)

导读 | 豆包AI

STARLINK-32892是美国于2025年2月4日发射的星链系列卫星,隶属于太空探索技术公司(SpaceX)的星链互联网星座项目。该项目旨在通过近地轨道卫星群,为全球提供高速低延迟宽带互联网服务,尤其覆盖偏远及网络基础设施薄弱地区,此卫星进一步扩充了星链星座的在轨服务规模。

Basic Information
目录编号:
62893
目录名称:
STARLINK-32892
国际标识:
2025-024Q
轨道中心:
EARTH
卫星名称:
星链-32892
卫星全名:
星链-32892 (STARLINK-32892)
卫星状态:
在轨 (已飞行449 天)
发射日期:
2025-02-04 UTC
国别 :
美国 (US)
星等 :
--
Orbit Information
数据来源 国际轨道数据 AOE轨道数据
星历时间 2026-04-29T10:25:50+0800
20小时前
查看轨道信息
2026-04-28T17:00:00+0800
1天前
查看轨道信息
半长轴 6861.126km 6861.186km
偏心率 0.0000951 0.000007
轨道倾角 43.005° 43.006°
近地点辐角 279.877° 180.584°
升交点赤经 40.846° 44.949°
平近点角 80.197° 140.802°
近地点 482.336km 483km
远地点 483.642km 483.098km
周期 94.265分钟 94.267分钟
每日圈数 15.276004 15.275803
Detailed Information
固有亮度:
5
最大亮度:
2.5
卫星平台:
Starlink V1.0
覆盖范围:
全球
运营商:
太空探索技术公司
运营商所在国:
美国
制造商(研发单位):
太空探索技术公司
制造商所在国:
美国
使用方式:
暂无
Satellite Introduction
Starlink 计划是 SpaceX 推出的全球卫星互联网项目,通过发射低轨道卫星,为全球尤其是偏远地区提供高速、低延迟的互联网服务。自 2019 年起,Starlink 已部署数千颗卫星,旨在缩小全球数字鸿沟,推动互联网普及。该项目还为军事、航空等行业提供通信支持,带来广泛经济效益。
2D Orbit Map
3D Orbit Map
Orbit Altitude Analysis Chart
Orbit Inclination Analysis Chart
Orbit Comprehensive Analysis Chart
View Comprehensive Chart